This demonstration page uses our WeatherBlox Daily Observations layout. Learn more.

Left ArrowRight Arrow

Hourly Observations for February 13, 2017

Temp ( °F °C ) Dew Point ( °F °C ) Humidity (%) Winds ( mph kmh ) Pressure ( in mb ) Visibility ( mi km ) Precip ( " mm )
12:51 am 00:51 Cloudy 50 10 42 5.6 74 74 S 12 19 30.04 1017 10 16 N/A
1:51 am 01:51 Cloudy 50 10 42 5.6 74 74 S 13 20 30.04 1017 10 16 N/A
2:51 am 02:51 Cloudy 49 9.4 43 6.1 80 80 SSE 8 13 30.02 1017 10 16 N/A
3:51 am 03:51 Cloudy 48 8.9 43 6.1 83 83 SE 6 9 30.01 1016 10 16 N/A
4:25 am 04:25 Cloudy 48 8.9 42 5.6 80 80 SE 5 7 30.06 1018 10 16 N/A
4:48 am 04:48 Cloudy 48 9 43 6 82 82 S 12 19 30.06 1018 10 16 N/A
4:51 am 04:51 Cloudy 48 8.9 42 5.6 80 80 S 10 17 30.02 1017 10 16 N/A
5:51 am 05:51 Cloudy with Light Rain 47 8.3 43 6.1 86 86 SE 6 9 30.02 1017 10 16 0.01 0.25
5:58 am 05:58 Cloudy 47 8.3 43 6.1 86 86 SE 6 9 30.09 1019 10 16 N/A
6:51 am 06:51 Cloudy 46 7.8 43 6.1 89 89 N N/A 30.04 1017 10 16 0.03 0.76
6:59 am 06:59 Cloudy 46 7.8 44 6.7 93 93 ENE 3 6 30.09 1019 10 16 N/A
7:51 am 07:51 Cloudy 47 8.3 43 6.1 86 86 E 9 15 30.04 1017 10 16 0.01 0.25
8:51 am 08:51 Cloudy with Light Rain 46 7.8 43 6.1 89 89 SSE 10 17 30.05 1018 9 14 N/A
9:15 am 09:15 Cloudy with Light Rain 47 8.3 44 6.7 90 90 SSE 12 19 30.09 1019 10 16 0.01 0.25
9:51 am 09:51 Cloudy 47 8.3 42 5.6 83 83 S 13 20 30.05 1018 10 16 0.01 0.25
10:51 am 10:51 Cloudy 47 8.3 42 5.6 83 83 SE 7 11 30.05 1018 10 16 N/A
10:59 am 10:59 Cloudy 47 8.3 43 6.1 86 86 SSE 7 11 30.09 1019 10 16 N/A
12:51 pm 12:51 Cloudy 51 10.6 42 5.6 71 71 S 8 13 30.01 1016 10 16 N/A
1:51 pm 13:51 Cloudy 51 10.6 41 5 69 69 N N/A 29.98 1015 10 16 N/A
2:37 pm 14:37 Cloudy 52 11.1 41 5 66 66 N N/A 30.00 1016 10 16 N/A
2:51 pm 14:51 Cloudy 53 11.7 42 5.6 66 66 E 5 7 29.98 1015 10 16 N/A
3:51 pm 15:51 Mostly Cloudy 53 11.7 42 5.6 66 66 N N/A 29.97 1015 10 16 N/A
4:51 pm 16:51 Mostly Cloudy 52 11.1 42 5.6 69 69 E 5 7 29.97 1015 10 16 N/A
5:51 pm 17:51 Cloudy 52 11.1 42 5.6 69 69 E 5 7 29.98 1015 10 16 N/A
6:51 pm 18:51 Cloudy 50 10 44 6.7 80 80 ENE 3 6 30.00 1016 10 16 N/A
7:51 pm 19:51 Cloudy with Light Rain 50 10 44 6.7 80 80 ENE 5 7 30.00 1016 10 16 N/A
8:51 pm 20:51 Cloudy 48 8.9 44 6.7 86 86 NE 6 9 30.01 1016 10 16 N/A
9:51 pm 21:51 Mostly Cloudy 48 8.9 44 6.7 86 86 NE 3 6 30.01 1016 10 16 N/A
10:51 pm 22:51 Partly Cloudy 45 7.2 42 5.6 90 90 NNW 3 6 30.01 1016 10 16 N/A
11:51 pm 23:51 Clear 44 6.7 41 5 89 89 ESE 3 6 30.00 1016 10 16 N/A

Powered by AerisWeather